Hauptseite
METAR-TAF:

METAR-TAF

Flughäfen :

Colmar, Frankreich

Flughafen Colmar

Breite: 48-06-37N, Länge: 7-21-33E, Höhe: 191 m

Beobachtung

Neuester Wetterbericht von vor 28 Minuten, um 08:00 UTC
Wind 4 kt aus West/Südwest
Temperatur 5°C
Luftfeuchtigkeit 81%
Luftdruck 1024 hPa
Sichtweite 10 km oder mehr
Geschlossene Wolkendecke in der Höhe von 2800 ft

METAR: LFGA 180800Z AUTO 24004KT 9999 OVC028 05/02 Q1024

Zeit: 09:28 (08:28 UTC)


TAF: fehlend

Wetterbeobachtungen und Prognosen von mehr als 4000 Flughäfen (METAR und TAF Bericht).

Die verfügbaren Stationen werden durch gelbe und rote Markierungen auf der Karte dargestellt.

Führen Sie die Maus auf sie, um den Namen der Station zu sehen.

Darauf klicken, um die Beobachtung von Wetterbeobachtungen und Prognosen zu sehen.

Um die Karte zu ändern : klicken Sie auf den grünen Tasten mit einem schwarzen Kreuz Zum Vergrößern, auf den grünen Button mit einem Gedankenstrich zu verkleinern, oder auf die grünen Pfeile für benachbarte Karten.


METAR-TAF: